NOAA 16 DEB

Satellite information

Favourite Embed

Satellite Type and Status

DEBRISIN ORBIT

Key statistics

Satellite NOAA 16 DEB at a glance.

Uptime

8998

Days in orbit

Revolutions

≈ 14.5

Per day

Orbit

SSO

Sun Synchronous Orbit

Inclination

99.0

Latest

Satellite identification and parameters

Extended collection of information and parameters for NOAA 16 DEB.

Object identification

Identified? True

Debris? True

Object name: NOAA 16 DEB

International designator: 2000-055EZ

Object number (NORAD): 41249

Object ID (CCSDS): 41249

Country: UNITED STATES OF AMERICA (US)

Current information (Y/N): Y

RCS size: SMALL

Orbital parameters

Period: 99.181 minutes

Inclination: 98.9822 deg

SMA: 7097.616 km

Apoapsis: 743.738 km

Periapsis: 695.225 km

RAAN: 321.0509 deg

Eccentricy: 0.0034175

Argument of periapsis: 187.5899 deg

Mean anomaly: 172.4781 deg

Mean motion: 14.51890866 rev/day

Mean motion (dot): 0.00012405 rev/day2

B* drag term: 0.0030621 1/REarth

Two-line elements (TLE)

Creation date: May 4, 2025, 5:21 p.m.

Reference frame: TEME

Reference center: EARTH

Epoch: May 3, 2025, 11:50 p.m. UTC

TLE line 0: 0 NOAA 16 DEB

TLE line 1: 1 41249U 00055EZ 25123.99356217 .00012405 00000-0 30621-2 0 9991

TLE line 2: 2 41249 98.9822 321.0509 0034175 187.5899 172.4781 14.51890866486261

Live tracking on map

Real-time ground track for satellite NOAA 16 DEB.

In-orbit conjunctions

A list of the most updated potential collisions computed for object NOAA 16 DEB.

Target Orbit TCA Probability of collision Miss distance Type
SCOUT G-1 R/B LEO 2025-04-06 22:02:39 0.0001831752 409.0 (m) ROCKET BODY
CZ-6A DEB LEO 2025-01-23 11:20:33 0.0003986819 500.0 (m) DEBRIS

Associated space launch

The NOAA K, L and M POES satellites begin the fifth generation of improved environmental monitoring in support of NOAA missions. The instrument payload has significant improvements and additions/deletions. The instrument changes have effected the spacecraft subsystems and data formats.

NOAA 16 DEB was lifted into orbit during the mission ‘Titan II SLV | NOAA 16’, on board a Titan II SLV space rocket.

The launch took place on Sept. 21, 2000, 10:22 a.m. from Space Launch Complex 4W.

For more information about the launch, click the button.

Launch to space Titan II SLV | NOAA 16
Titan II SLV | NOAA 16

Agency: N/A

Status: Launch Successful

Launch date: Sept. 21, 2000, 10:22 a.m. UTC

Rocket: Titan II SLV

Launch pad: Space Launch Complex 4W

Location: Vandenberg SFB, CA, USA

...

Latest news about this satellite

There are no fresh news available about this satellite. Check back as we update our databases every day.


Newsletter sign-up

Weekly statistics, charts and insights to help you stay on top of the space industry.